Flag for Canada Weather past 2 weeks in Clarington, Ontario, Canada

Now
59 °F

Light rain. Mostly cloudy.


Feels Like: 59 °F
Forecast: 60 / 72 °F
Wind: No wind

Location: Peterborough Airport

Current Time: Aug 4, 2015 at 6:11:38 AM

Latest Report: Aug 4, 2015 at 5:03 AM


Visibility: 9 mi

Pressure: 29.81 "Hg

Humidity: 94%

Dew point: 57 °F

Location of ClaringtonLocation

Historic Weather in Clarington — Graph

°F

Clarington temperature yesterday

Maximum temperature yesterday: 77 °F (at 3:00 PM)
Minimum temperature yesterday: 61 °F (at 12:03 AM)
Average temperature yesterday: 67 °F

Past Weeks' High & Low Weather Summary

 TemperatureHumidityPressure
High90 °F (Jul 28, 4:00 PM)100% (Jul 20, 5:00 AM)30.03 "Hg (Jul 20, 5:00 AM)
Low48 °F (Jul 24, 5:00 AM)34% (Jul 23, 2:00 PM)29.59 "Hg (Aug 3, 2:00 AM)
Average69 °F74%29.84 "Hg
* Reported Jul 20 5:00 AM — Aug 4 5:03 AM, Clarington, Weather by CustomWeather, © 2015

Note: Actual official high and low records may vary slightly from our data, if they occured in-between our weather recording intervals... More about our weather records

Advertising

Clarington weather history for previous 24 hours

 ConditionsComfort  
Time TempWeatherWind HumidityBarometerVisibility
5:03 AM
Tue, Aug 4
59 °FLight rain. Mostly cloudy.No wind94%29.81 "Hg9 mi
4:00 AM59 °FMostly cloudy.3 mph94%29.80 "Hg9 mi
3:00 AM55 °FPassing clouds.2 mph100%29.79 "Hg9 mi
2:00 AM55 °FClear.No wind100%29.78 "Hg9 mi
1:49 AM55 °FFog.2 mph100%29.78 "Hg6 mi
1:00 AM55 °FClear.No wind100%29.79 "Hg9 mi
12:00 AM59 °FClear.No wind94%29.78 "Hg9 mi
11:00 PM
Mon, Aug 3
61 °FPassing clouds.3 mph94%29.78 "Hg9 mi
10:00 PM64 °FMostly cloudy.2 mph83%29.77 "Hg9 mi
9:00 PM63 °FPartly sunny.2 mph88%29.75 "Hg9 mi
8:00 PM70 °FSunny.5 mph64%29.74 "Hg9 mi
7:00 PM72 °FPartly sunny.7 mph53%29.72 "Hg9 mi
6:00 PM75 °FSunny.14 mph41%29.72 "Hg9 mi
5:00 PM75 °FBroken clouds.13 mph54%29.72 "Hg9 mi
4:00 PM77 °FScattered clouds.8 mph51%29.70 "Hg9 mi
3:00 PM77 °FPassing clouds.14 mph47%29.71 "Hg9 mi
2:00 PM73 °FBroken clouds.12 mph61%29.71 "Hg9 mi
1:00 PM75 °FPassing clouds.12 mph65%29.70 "Hg9 mi
12:00 PM73 °FBroken clouds.12 mph69%29.70 "Hg9 mi
11:00 AM70 °FOvercast.9 mph83%29.70 "Hg9 mi
10:00 AM66 °FCloudy.7 mph88%29.70 "Hg9 mi
9:00 AM63 °FLight rain. Mostly cloudy.9 mph94%29.69 "Hg9 mi
8:00 AM64 °FPartly sunny.7 mph88%29.68 "Hg9 mi
7:00 AM63 °FPassing clouds.6 mph94%29.67 "Hg9 mi
6:00 AM63 °FLight rain. Overcast.7 mph94%29.65 "Hg9 mi
Weather by CustomWeather, © 2015

See weather overviewHow to use our weather pages